EDT,Max TemperatureF,Mean TemperatureF,Min TemperatureF,Max Dew PointF,MeanDew PointF,Min DewpointF,Max Humidity, Mean Humidity, Min Humidity, Max Sea Level PressureIn, Mean Sea Level PressureIn, Min Sea Level PressureIn, Max VisibilityMiles, Mean VisibilityMiles, Min VisibilityMiles, Max Wind SpeedMPH, Mean Wind SpeedMPH, Max Gust SpeedMPH,PrecipitationIn, CloudCover, Events, WindDirDegrees
2013-3-1,54,47,39,34,30,28,70,54,38,29.96,29.93,29.88,10,10,10,15,7,22,0.00,6,,290
2013-3-2,52,44,36,33,31,27,82,61,39,29.95,29.92,29.86,10,10,10,17,9,25,0.00,4,,276
2013-3-3,48,39,30,32,26,23,92,65,38,30.04,29.97,29.92,10,10,10,17,8,22,0.00,3,,293
2013-3-4,57,42,27,37,23,17,81,51,21,30.19,30.13,30.04,10,10,10,15,7,22,0.00,1,,293
2013-3-5,66,54,41,54,42,32,92,61,30,30.15,29.99,29.74,10,10,10,23,10,32,T,6,Rain,209
2013-3-6,59,50,40,51,27,21,80,55,30,30.09,29.89,29.73,10,10,10,28,17,40,0.00,1,,295
2013-3-7,61,46,31,34,29,26,85,57,29,30.24,30.18,30.11,10,10,10,15,7,20,0.00,0,,333
2013-3-8,62,48,33,34,26,20,82,51,20,30.30,30.24,30.18,10,10,10,20,9,24,0.00,0,,355
2013-3-9,67,51,35,40,33,27,89,58,26,30.34,30.28,30.24,10,10,9,16,5,23,0.00,1,,54
2013-3-10,68,54,39,42,39,35,92,62,32,30.30,30.25,30.22,10,10,10,13,6,17,0.00,2,,95
2013-3-11,73,60,47,57,51,41,89,69,49,30.22,30.07,29.93,10,10,10,22,10,26,0.00,6,,139
2013-3-12,73,65,56,62,57,42,87,62,37,29.96,29.87,29.82,10,10,7,23,12,39,0.07,7,Rain,231
2013-3-13,68,55,42,43,30,22,76,48,19,30.14,30.06,29.97,10,10,10,21,11,29,0.00,0,,303
2013-3-14,58,47,35,28,21,17,60,41,21,30.32,30.23,30.13,10,10,10,18,8,23,0.00,0,,336
2013-3-15,70,54,37,45,33,26,71,48,25,30.25,30.15,30.05,10,10,10,15,7,18,0.00,0,,235
2013-3-16,82,68,54,49,43,38,67,45,23,30.03,29.97,29.88,10,10,10,23,12,31,0.00,1,,238
2013-3-17,79,68,57,53,49,45,77,58,38,30.05,30.01,29.96,10,10,10,23,11,26,0.00,5,,236
2013-3-18,69,63,56,61,56,52,90,77,63,30.09,29.99,29.87,10,9,2,33,6,46,0.45,7,Rain-Thunderstorm,149
2013-3-19,78,67,55,56,48,27,100,61,21,30.01,29.92,29.84,10,9,0,18,9,24,0.04,5,Fog-Rain,299
2013-3-20,67,55,42,36,27,15,70,43,16,30.12,29.99,29.85,10,10,10,15,7,18,0.00,5,,46
2013-3-21,60,49,38,36,21,9,70,42,14,29.96,29.86,29.81,10,10,10,23,10,29,0.00,1,,296
2013-3-22,55,46,37,37,25,15,66,48,29,30.11,30.06,29.98,10,10,10,14,7,18,0.00,6,,66
2013-3-23,56,49,42,51,44,35,93,72,50,30.06,29.98,29.89,10,9,2,17,7,23,0.45,7,Rain,60
2013-3-24,63,55,47,61,51,44,96,90,83,29.86,29.62,29.49,10,8,2,26,10,32,3.00,8,Rain-Thunderstorm,28
2013-3-25,56,49,42,46,32,19,86,56,26,29.98,29.75,29.62,10,10,10,28,15,40,0.00,4,,286
2013-3-26,52,44,35,28,24,22,64,49,33,30.19,30.06,29.99,10,10,10,21,11,30,0.00,2,,289
2013-3-27,61,46,31,30,26,23,75,50,25,30.28,30.23,30.18,10,10,10,18,7,22,0.00,0,,318
2013-3-28,62,49,36,32,26,22,70,46,21,30.32,30.26,30.20,10,10,10,17,7,22,0.00,0,,347
2013-3-29,67,51,35,44,32,23,92,56,19,30.37,30.30,30.23,10,10,10,16,5,20,0.00,1,,131
2013-3-30,75,63,51,50,44,38,83,57,31,30.26,30.17,30.09,10,10,10,18,8,23,0.00,5,,199
2013-3-31,76,67,57,56,54,49,78,64,49,30.10,30.01,29.92,10,10,5,23,11,31,0.06,6,Rain,219